Content
SEND FEEDBACK

Daily
Averages
Monthly
Summary
United States of America

BOX ELDER, SOUTH DAKOTA


Home > North America > United States > South Dakota
Elevation: 3170 feet     Latitude: 44 09N     Longitude: 103 06W

WEATHER
 
SELECT A DAY
Number of Records: 207,807;   Date Range: 1/1/95 - 10/23/14
 
SHARE

PRINT THIS DATA

[ ← Previous Day ]
WEATHER ALMANAC - JANUARY 27, 2013
[ Next Day → ]
[ °C ]   °F
Weather ElementAverageHighLow
Temperature36.3 °F46 °F (12:55 pm)30.2 °F (11:55 pm)
Dewpoint27.9 °F31.1 °F (9:55 pm)23.5 °F (1:55 am)
Humidity72.8 %94 % (9:55 pm)47 % (12:55 pm)
Barometer29.74 in29.81 in (11:55 pm)29.67 in (12:55 pm)
Wind Speed12.9 mph24.2 mph (2:55 pm)
Wind Gust29.9 mph (7:44 pm)
Weather ElementAverage
Visibility10 mi
Wind DirectionWSW (262 °)

Weather ElementTotal
Precipitation---
Heating Degree Days26.9 (Base 65)
Averaged from 25 records on January 27, 2013
WEATHER CONDITIONS BREAKOUT
WIND DIRECTION BREAKOUT
WEATHER BY HOUR - JANUARY 27, 2013
[ °C ]   °F
Local TimeTemperatureDewpointHumidityBarometerVisibilityWind DirectionWind SpeedGust SpeedPrecipitationEventsConditions
1:55 AM35.6 °F23.5 °F62 %29.74 in10.0 miSSW (210°)3.5 mphClear
2:55 AM32.7 °F23.9 °F70 %29.72 in10.0 miCalmClear
3:55 AM34.2 °F23.9 °F66 %29.71 in10.0 miCalmClear
4:55 AM31.8 °F25.2 °F76 %29.72 in10.0 miSSW (200°)5.8 mphOvercast
5:55 AM36.3 °F25.5 °F65 %29.70 in10.0 miSouth (190°)6.9 mphOvercast
6:55 AM37.4 °F25.2 °F61 %29.71 in10.0 miSSE (160°)6.9 mphOvercast
7:55 AM35.8 °F27.0 °F70 %29.72 in10.0 miCalmScattered Clouds
8:55 AM37.6 °F28.4 °F69 %29.71 in10.0 miSSE (150°)3.5 mphMostly Cloudy
9:55 AM40.3 °F28.0 °F62 %29.70 in10.0 miCalmMostly Cloudy
10:55 AM41.2 °F28.4 °F60 %29.70 in10.0 miNorth (350°)13.8 mphMostly Cloudy
11:55 AM41.9 °F27.0 °F55 %29.70 in10.0 miNorth (360°)17.3 mphOvercast
12:55 PM46.0 °F27.0 °F47 %29.67 in10.0 miNorth (350°)21.9 mphPartly Cloudy
1:55 PM46.0 °F28.9 °F51 %29.67 in10.0 miNorth (350°)23.0 mphClear
2:55 PM43.5 °F29.3 °F57 %29.69 in10.0 miNorth (360°)24.2 mphClear
3:55 PM40.3 °F30.0 °F67 %29.72 in10.0 miNorth (360°)24.2 mphPartly Cloudy
4:55 PM36.5 °F29.7 °F76 %29.75 in10.0 miNorth (360°)21.9 mph27.6 mphPartly Cloudy
5:55 PM33.8 °F29.1 °F83 %29.77 in10.0 miNorth (360°)23.0 mph27.6 mphClear
6:55 PM32.2 °F29.1 °F88 %29.78 in10.0 miNorth (350°)19.6 mphClear
7:44 PM32.0 °F30.2 °F93 %29.80 in10.0 miNorth (350°)18.4 mph29.9 mphPartly Cloudy
7:55 PM32.5 °F30.0 °F90 %29.80 in10.0 miNorth (360°)17.3 mphPartly Cloudy
8:55 PM32.9 °F30.6 °F91 %29.78 in10.0 miNorth (360°)20.7 mphPartly Cloudy
9:28 PM32.0 °F30.2 °F93 %29.79 in10.0 miNorth (350°)13.8 mphScattered Clouds
9:55 PM32.5 °F31.1 °F94 %29.79 in10.0 miNNW (340°)12.7 mph23.0 mphScattered Clouds
10:55 PM32.4 °F28.9 °F87 %29.79 in10.0 miNNW (340°)15.0 mphClear
11:55 PM30.2 °F27.1 °F88 %29.81 in10.0 miNNW (340°)8.1 mphPartly Cloudy
Hourly data recorded from KRCA, located miles away from Box Elder, South Dakota







STORIES FROM OUR PARTNERS